Vertical_Velocity
1 3 2 -1 1 2 -0 -1 -2 -4 -8 -4 -0 -3 -3 -2 21 -2 -23 -3 -2 -1 -2 5 14 1 -4 -7 -7 10 -8 1 5 -2 8 1 -4 2 1 -7 -4 -2 -3 -1 -2
2 3 1 0 2 0 -1 -2 -1 1 -6 -3 -3 -3 -1 1 18 -5 7 2 0 -3 17 15 -2 8 -7 -2 5 -10 -8 6 4 2 2 2 -4 -1 3 1 2 0 -2 -2 2
2 -0 -1 -0 1 -1 -1 -4 -3 -2 4 1 -0 -1 -4 1 18 4 0 -1 -3 -7 6 -1 -1 -9 -12 -7 4 12 -3 3 9 3 0 -2 0 -0 -1 3 0 2 2 -2 -3
0 -0 -1 1 1 0 -0 -1 -2 -2 2 4 1 -1 -7 -1 6 -8 -1 -3 -5 -14 3 -3 11 -5 -7 -3 4 -20 2 -3 6 0 2 0 -1 0 2 4 -2 -2 -2 -1 -1
0 -1 1 1 0 -1 -1 1 -1 -0 1 -2 -1 -2 9 -12 3 -5 -9 5 -9 2 3 2 -5 -3 -3 -5 -7 -9 4 -1 -1 -0 -1 -2 1 -0 -0 0 -3 -4 -6 -1 -1
-0 1 -1 0 1 1 2 -1 0 -2 -1 1 0 -0 15 -35 8 -1 -1 -4 -2 5 5 -2 -0 -0 -3 0 -4 -1 -1 2 2 1 -4 0 2 4 0 -5 -3 -3 2 5 -7
-0 -1 1 -0 -2 -0 2 1 -1 0 2 1 -3 -1 -21 8 -3 8 -3 0 -1 -3 -5 -7 -6 4 -2 1 1 -4 -3 3 3 0 2 -1 9 2 -1 -4 1 -2 -1 2 -4
0 -0 -1 -0 -0 -0 -1 -2 1 -2 -1 -5 -7 -12 -6 -3 6 -5 -0 -4 -2 -4 -5 -1 -11 -4 -7 -4 7 3 6 5 7 -0 1 8 12 2 -2 3 -0 -1 -5 -3 -4
-1 -0 -1 -1 -1 1 1 0 -0 -2 -4 -1 4 -7 4 -2 -10 -3 -2 2 -3 -0 -10 -9 -13 -14 5 1 9 3 3 -1 8 -1 1 6 0 3 -3 -1 -1 -1 1 1 -2
0 0 -1 0 2 1 2 -2 -12 0 -8 -10 7 1 -4 2 -3 -1 2 -4 -4 -6 4 -1 5 -3 -7 -3 6 2 -2 -2 1 8 -1 -1 -3 1 -4 0 -1 -3 -6 -6 -3
-0 0 -0 -2 1 2 0 1 13 -3 -23 4 13 -6 7 5 -4 -2 -13 1 7 2 -4 2 -15 2 7 3 3 1 0 1 1 3 6 -0 -1 -2 1 2 0 0 1 -0 3
0 1 2 -2 -1 -1 -3 8 -3 6 2 1 3 -2 -2 1 6 -4 8 -1 -3 -0 2 2 0 6 0 -1 0 -1 1 0 3 0 6 -1 -4 -2 1 0 3 -0 -5 -2 -9
-0 1 1 -1 2 1 -2 -4 -3 -4 6 3 -3 -1 -2 -5 2 2 -1 -8 -1 -5 -0 -4 10 -2 -0 -1 -1 1 3 0 6 -3 1 4 4 1 4 -5 -6 2 6 -2 4
-1 -1 -1 -1 -4 -2 -1 -1 -3 -4 5 8 1 -2 4 -6 1 1 -3 -5 -2 3 0 2 2 0 -0 0 4 1 3 1 0 4 6 4 -0 2 -0 -3 0 -3 -1 -2 3
-1 -1 -2 -2 -5 8 -3 -1 -1 -1 7 6 5 -10 2 -0 -2 3 -5 -0 1 2 10 12 0 -1 -1 5 2 9 1 2 1 1 6 3 9 8 1 -5 -3 -2 -1 0 -2
-2 -2 -0 1 -3 -2 -3 -3 -3 16 5 6 2 3 3 1 -0 -2 -1 -10 -7 -1 -2 2 -3 1 7 -1 1 0 6 5 1 3 7 4 5 -1 0 5 -3 -3 -4 -2 -0
-1 -1 -2 -2 5 -2 -2 -3 6 -3 8 6 2 1 0 1 2 -0 0 -1 7 6 4 5 3 1 0 2 3 -1 -2 5 6 8 7 1 3 -0 -1 0 5 2 -2 -1 -2
-1 -1 -2 -2 -3 -4 -5 8 -5 2 1 3 -0 1 2 2 3 1 1 2 2 -0 2 3 10 2 2 3 6 1 7 3 1 1 1 2 -1 -4 0 -1 -3 4 2 1 -1
-1 -1 -1 -1 -3 -2 4 -1 3 1 -1 -0 5 3 2 1 6 2 1 1 2 2 7 0 5 4 -1 0 8 2 1 7 3 1 7 -0 2 4 0 -3 -3 -1 -3 -1 -0
2 -0 -2 -2 -1 -5 9 -0 3 1 -0 3 3 4 1 1 3 3 1 4 1 1 -0 5 4 2 4 3 4 8 6 10 2 0 -3 -2 -1 1 -3 -2 -2 -3 -1 -2 -0
-7 8 -6 -4 -2 5 0 2 0 -1 1 4 1 1 1 1 2 -0 2 6 -0 1 -0 2 5 9 5 2 2 8 3 1 6 3 4 1 -0 -0 1 2 2 0 0 1 -1
-4 7 -6 -1 12 -1 0 1 -5 1 -2 2 2 1 1 0 0 0 2 3 -2 -0 2 5 3 0 5 4 1 2 -0 1 5 4 -1 2 -14 -0 0 0 3 -0 0 -2 -1
8 2 -5 -4 -1 -1 1 1 1 1 -0 1 0 1 0 1 3 1 -0 -0 -1 1 4 5 -0 -0 12 11 6 2 -1 -0 0 1 -3 6 1 0 0 -1 -2 0 -2 -1 -3
4 -2 3 -2 -6 2 0 -1 2 -4 1 -0 1 1 2 1 0 1 0 1 -1 3 -5 -0 0 4 4 9 5 2 -0 -0 2 4 -1 -7 -9 -8 -5 -1 -5 -4 -3 -2 0
1 -3 -1 -3 -2 1 1 0 0 2 0 -1 2 1 -1 1 0 -1 0 3 0 -0 1 4 2 4 -3 -0 3 1 1 -1 4 -7 5 -2 1 -6 -1 -0 -2 -2 1 -2 -2
10 8 -7 0 -2 3 1 -4 0 1 -0 -0 5 -0 1 2 1 1 2 1 -1 7 1 1 -2 2 -6 -1 0 1 -1 0 -0 -1 3 3 -12 1 -1 4 3 -1 0 -2 -1
-6 -6 0 1 0 5 -5 -5 -2 1 -1 1 -0 3 2 -1 3 -0 0 -2 2 -1 -1 2 2 1 -5 -0 1 2 -6 -3 -2 0 -3 1 -13 -1 -4 -2 -2 -4 -1 0 -4
Height
1541 1540 1540 1540 1539 1539 1539 1539 1539 1538 1536 1534 1534 1533 1533 1532 1534 1529 1526 1530 1529 1528 1526 1523 1526 1524 1523 1522 1520 1514 1518 1531 1536 1540 1562 1567 1568 1573 1575 1576 1577 1577 1580 1582 1582
1543 1543 1542 1542 1542 1540 1540 1540 1540 1538 1534 1534 1534 1534 1534 1532 1536 1530 1535 1532 1531 1530 1529 1530 1528 1526 1527 1527 1522 1516 1528 1546 1551 1555 1561 1566 1569 1573 1573 1575 1578 1580 1582 1583 1583
1545 1545 1545 1545 1544 1543 1542 1542 1541 1540 1536 1534 1534 1533 1534 1534 1535 1541 1536 1535 1534 1533 1535 1534 1533 1532 1533 1535 1535 1536 1545 1555 1561 1563 1564 1568 1572 1574 1572 1573 1579 1581 1582 1583 1582
1549 1549 1549 1548 1547 1546 1545 1544 1543 1541 1540 1539 1538 1536 1535 1534 1545 1547 1540 1538 1537 1535 1537 1535 1534 1535 1536 1541 1547 1547 1556 1562 1567 1569 1568 1571 1574 1576 1576 1580 1583 1584 1585 1583 1582
1552 1552 1552 1551 1550 1549 1548 1547 1544 1542 1542 1542 1541 1540 1542 1540 1552 1550 1544 1543 1540 1540 1540 1539 1538 1539 1540 1549 1554 1557 1563 1567 1571 1573 1575 1576 1576 1578 1582 1584 1585 1585 1584 1583 1581
1554 1554 1554 1554 1553 1552 1551 1549 1548 1546 1545 1544 1544 1543 1545 1541 1558 1554 1549 1547 1544 1542 1542 1542 1542 1544 1549 1551 1551 1564 1567 1570 1573 1576 1578 1576 1579 1581 1582 1585 1584 1583 1582 1582 1581
1557 1557 1556 1556 1556 1555 1554 1552 1551 1550 1549 1547 1546 1548 1543 1559 1560 1558 1553 1550 1548 1547 1546 1547 1547 1547 1555 1559 1565 1566 1566 1569 1572 1576 1576 1578 1576 1575 1580 1582 1581 1581 1581 1579 1578
1559 1559 1558 1558 1557 1557 1556 1555 1554 1552 1552 1551 1550 1551 1555 1563 1562 1560 1559 1555 1553 1552 1552 1552 1551 1552 1555 1561 1563 1557 1553 1549 1572 1575 1577 1578 1560 1574 1578 1578 1578 1578 1577 1576 1575
1561 1561 1561 1560 1559 1559 1559 1558 1557 1555 1554 1554 1555 1555 1562 1565 1564 1562 1561 1560 1558 1557 1555 1555 1554 1556 1560 1550 1545 1544 1544 1553 1565 1574 1574 1573 1561 1568 1576 1576 1575 1574 1573 1573 1572
1563 1563 1563 1563 1562 1561 1562 1562 1560 1558 1556 1556 1558 1556 1568 1569 1566 1565 1563 1562 1561 1560 1557 1555 1552 1550 1550 1536 1552 1558 1553 1550 1557 1567 1570 1564 1560 1563 1571 1573 1573 1573 1571 1570 1568
1566 1565 1564 1564 1564 1563 1562 1562 1564 1566 1562 1564 1567 1566 1570 1570 1569 1567 1564 1564 1561 1559 1557 1559 1558 1567 1569 1566 1566 1564 1559 1557 1558 1571 1572 1560 1559 1558 1562 1568 1570 1568 1567 1565 1564
1568 1567 1566 1566 1566 1564 1564 1565 1565 1569 1571 1571 1571 1571 1571 1571 1569 1569 1567 1565 1560 1561 1562 1555 1571 1578 1575 1574 1572 1566 1563 1562 1563 1573 1573 1557 1557 1555 1559 1566 1568 1568 1566 1563 1561
1569 1569 1569 1568 1568 1568 1567 1567 1568 1568 1566 1574 1573 1573 1574 1574 1574 1573 1572 1572 1566 1565 1564 1562 1581 1583 1578 1572 1571 1565 1572 1573 1571 1566 1562 1558 1548 1555 1560 1566 1565 1562 1560 1559 1557
1570 1570 1570 1570 1573 1570 1571 1569 1568 1568 1557 1573 1574 1576 1577 1575 1577 1577 1575 1575 1572 1571 1571 1576 1585 1582 1571 1571 1576 1558 1578 1576 1572 1565 1553 1563 1556 1545 1558 1556 1554 1558 1558 1557 1555
1571 1571 1571 1572 1572 1573 1572 1569 1568 1568 1565 1575 1575 1577 1577 1576 1578 1577 1576 1575 1574 1575 1577 1580 1580 1577 1572 1582 1581 1575 1581 1577 1571 1564 1559 1553 1549 1545 1550 1550 1553 1556 1557 1556 1554
1570 1571 1572 1574 1573 1572 1571 1570 1569 1566 1580 1573 1575 1576 1575 1576 1577 1579 1579 1579 1579 1574 1574 1579 1584 1582 1582 1583 1581 1579 1570 1563 1569 1561 1554 1559 1563 1545 1553 1553 1553 1557 1557 1555 1553
1571 1571 1572 1572 1574 1572 1572 1572 1568 1581 1574 1573 1572 1574 1573 1574 1576 1577 1576 1575 1569 1570 1564 1574 1576 1583 1585 1574 1575 1569 1556 1542 1547 1544 1545 1568 1565 1557 1552 1556 1559 1557 1555 1554 1552
1571 1572 1572 1572 1572 1573 1574 1570 1591 1566 1565 1571 1571 1574 1571 1574 1576 1577 1575 1569 1575 1573 1563 1561 1564 1579 1586 1586 1586 1575 1573 1576 1579 1556 1554 1563 1564 1557 1556 1555 1555 1553 1553 1551 1550
1572 1573 1573 1572 1573 1573 1576 1575 1569 1562 1566 1570 1572 1572 1571 1575 1577 1575 1574 1574 1580 1581 1577 1572 1566 1585 1588 1589 1589 1576 1574 1583 1582 1569 1569 1542 1547 1553 1548 1548 1550 1551 1551 1549 1548
1574 1575 1574 1573 1573 1574 1573 1579 1570 1574 1574 1571 1570 1569 1565 1570 1576 1574 1573 1581 1582 1587 1586 1579 1575 1581 1588 1589 1589 1587 1588 1579 1572 1577 1572 1546 1545 1544 1547 1549 1549 1549 1550 1548 1548
1574 1575 1574 1574 1575 1575 1572 1570 1574 1577 1578 1575 1571 1570 1568 1571 1573 1572 1574 1584 1587 1587 1587 1582 1582 1580 1586 1582 1573 1579 1574 1583 1584 1576 1571 1561 1543 1547 1550 1550 1550 1549 1548 1547 1547
1575 1572 1574 1574 1574 1571 1570 1573 1578 1577 1579 1578 1578 1575 1574 1574 1573 1574 1575 1580 1590 1590 1584 1589 1584 1577 1563 1577 1581 1578 1576 1576 1577 1565 1565 1576 1563 1545 1549 1550 1548 1547 1547 1546 1546
1574 1574 1575 1576 1580 1576 1576 1576 1576 1577 1576 1577 1576 1578 1579 1576 1578 1576 1579 1591 1592 1591 1589 1589 1581 1575 1568 1579 1581 1578 1573 1576 1575 1583 1581 1567 1539 1543 1544 1546 1548 1546 1545 1544 1544
1575 1576 1576 1577 1575 1571 1572 1571 1574 1579 1578 1579 1577 1579 1578 1577 1577 1576 1580 1591 1593 1593 1596 1595 1584 1581 1573 1563 1565 1571 1571 1572 1577 1577 1562 1553 1541 1535 1540 1548 1547 1546 1544 1543 1541
1574 1574 1574 1580 1575 1573 1573 1571 1570 1574 1578 1578 1576 1576 1575 1576 1574 1576 1577 1589 1594 1594 1595 1594 1584 1574 1569 1565 1562 1562 1563 1564 1571 1575 1572 1544 1556 1548 1547 1547 1545 1544 1542 1541 1540
1574 1573 1575 1573 1574 1573 1573 1569 1568 1568 1573 1573 1575 1572 1574 1575 1572 1574 1576 1579 1578 1591 1591 1591 1582 1574 1569 1555 1572 1561 1555 1554 1555 1556 1567 1563 1553 1542 1540 1538 1539 1540 1540 1539 1539
1575 1574 1574 1572 1572 1571 1568 1567 1568 1569 1573 1573 1573 1572 1574 1574 1576 1579 1580 1580 1580 1581 1586 1586 1582 1573 1564 1557 1560 1552 1536 1541 1544 1545 1551 1556 1544 1540 1538 1537 1537 1536 1536 1537 1537